Temperature
16 16 16 16 15 15 16 16 15 15 15 15 15 15 15 15 15 15 15 15 15 15 15 15 15 14 14 14 14 14 14 14 14 14 14 14 14 14
15 15 15 15 15 15 15 15 15 15 15 15 15 15 15 15 15 15 15 15 15 14 14 14 14 14 14 14 14 14 14 13 13 13 13 13 13 13
15 15 15 15 15 15 15 15 15 15 15 15 14 14 14 14 14 14 14 14 14 14 14 14 14 14 14 14 14 13 13 13 13 13 13 13 13 13
15 15 15 15 15 15 15 15 14 14 14 14 14 14 14 14 14 14 14 13 13 13 14 14 14 13 13 13 13 13 13 13 13 13 13 13 13 13
15 15 15 15 15 14 14 14 14 14 14 14 14 14 13 13 13 13 13 13 13 13 13 13 13 13 13 13 13 13 13 13 13 13 12 12 12 12
14 14 14 14 14 14 14 14 14 14 14 13 13 13 13 13 13 13 13 13 13 13 13 13 13 13 13 13 13 12 12 12 12 12 12 12 12 12
14 14 14 14 14 14 14 14 14 13 13 13 13 13 13 12 12 12 12 12 12 12 12 12 12 12 12 12 12 12 12 12 12 12 12 12 12 12
14 14 13 13 13 13 13 13 13 13 13 13 13 12 12 12 12 12 12 12 12 12 12 12 12 12 12 12 12 12 12 12 12 12 12 12 12 11
13 13 13 13 13 13 13 13 13 13 13 13 12 12 12 12 12 12 12 12 12 12 11 11 12 12 12 11 11 11 11 12 12 12 12 11 11 11
13 13 13 13 13 13 13 13 13 12 12 12 12 12 12 12 12 12 12 11 11 11 11 11 11 11 11 11 11 11 11 11 11 11 11 11 11 11
13 12 12 12 12 12 12 12 12 12 12 12 12 12 12 12 11 11 11 11 11 11 11 11 11 11 11 11 11 11 11 11 11 11 11 11 11 11
12 12 12 12 12 12 12 12 12 12 12 12 12 12 12 12 12 11 11 11 11 11 11 11 11 11 10 11 11 11 11 11 11 11 11 11 10 10
12 12 12 12 12 12 11 11 11 11 11 11 11 11 11 12 11 11 11 11 11 11 11 11 11 10 10 10 10 10 10 10 10 10 10 10 10 10
12 12 12 12 12 12 11 11 11 11 11 11 11 11 11 11 11 11 11 11 11 11 11 11 11 11 10 10 10 10 10 10 10 10 10 10 10 10
12 12 12 11 11 11 11 11 11 11 11 11 11 11 11 11 11 10 11 10 11 11 10 10 10 10 10 10 10 10 10 10 10 10 10 10 10 10
12 12 11 11 11 11 11 11 11 10 10 10 10 10 10 10 10 10 10 10 10 10 10 10 10 10 10 10 10 10 10 10 10 10 10 9 9 10
12 11 11 11 11 11 11 11 10 10 10 10 10 10 10 10 10 10 10 10 10 10 10 10 10 10 10 10 9 9 10 10 10 9 9 9 9 9
11 11 11 11 11 11 10 10 10 10 10 10 10 10 10 10 10 10 10 10 10 10 10 10 10 9 9 9 9 9 9 9 9 9 9 9 9 9
11 11 11 10 10 10 10 10 10 10 10 10 10 10 9 9 9 9 9 9 9 9 10 9 9 9 9 9 9 9 9 9 9 9 9 9 9 9
11 11 11 10 10 10 10 10 10 10 10 9 9 9 9 9 9 9 9 9 9 9 9 9 9 9 9 9 9 9 9 9 9 9 9 9 9 9
11 11 11 10 10 10 10 10 10 9 9 9 9 9 9 9 9 9 9 9 9 9 9 9 9 9 9 9 8 9 9 9 9 9 9 9 9 9
11 11 10 10 10 10 10 9 9 9 9 9 9 9 9 9 9 9 9 9 9 9 9 9 9 8 8 8 8 8 8 8 8 8 8 9 9 9
11 10 10 10 10 9 9 9 9 9 9 9 9 9 8 8 8 8 8 8 8 8 8 8 8 8 8 8 8 8 8 8 8 8 8 8 8 9
Wind_Speed
1 1 1 1 0 0 1 2 3 2 1 1 0 1 0 2 3 4 5 7 7 7 7 8 9 11 11 10 9 9 8 7 7 6 6 6 5 5
0 0 1 1 1 1 1 1 2 3 2 1 0 0 1 1 2 4 5 5 5 6 6 6 8 9 10 10 10 9 9 8 7 7 7 6 6 6
2 1 1 1 1 1 1 1 1 2 3 0 0 1 2 2 2 2 3 3 3 4 5 6 6 7 8 9 9 9 9 9 8 8 7 7 6 6
1 1 1 1 1 1 1 1 1 2 3 2 0 1 1 1 2 2 2 2 2 2 3 4 5 5 7 8 9 9 9 9 9 9 8 7 7 7
1 1 0 1 1 1 1 1 1 2 2 3 1 0 1 1 2 2 2 1 1 1 2 3 4 5 6 7 9 9 9 9 9 9 8 8 8 8
1 1 1 1 1 1 1 1 2 2 3 3 2 1 0 1 2 1 0 0 0 0 1 1 2 2 4 5 6 8 9 9 9 9 8 9 9 9
1 1 1 1 1 1 1 1 2 2 2 2 2 1 0 1 1 1 1 0 1 0 1 1 1 1 2 4 5 7 8 8 9 9 9 10 10 10
0 1 1 2 2 2 2 2 3 3 3 2 2 2 2 2 2 2 2 1 0 1 2 0 1 1 2 4 5 7 7 8 9 9 10 10 10 10
0 0 1 2 2 2 2 3 1 1 3 4 4 4 4 4 3 2 2 2 2 2 2 1 1 2 3 5 6 7 8 8 9 9 9 10 10 10
0 1 1 1 1 0 1 1 2 2 3 3 4 5 5 5 5 4 4 2 0 1 2 2 2 2 2 3 7 8 9 9 9 10 10 10 10 10
1 0 1 1 2 0 1 0 2 3 3 3 3 4 5 5 5 3 3 3 1 2 1 2 2 1 2 2 5 7 8 9 10 10 11 11 10 9
1 2 2 2 2 1 1 1 1 3 2 2 2 2 1 2 4 4 5 4 2 2 2 2 2 1 1 2 2 4 5 7 9 10 10 11 10 6
2 2 3 3 2 2 1 2 3 2 1 1 1 2 1 1 1 3 4 5 4 4 4 3 2 2 2 2 2 3 4 4 4 6 8 10 11 9
3 3 3 3 2 2 1 2 2 1 0 1 1 1 2 2 2 2 3 5 5 5 5 5 3 3 2 2 3 2 3 4 4 4 5 6 8 10
3 4 4 3 3 2 3 3 2 0 1 1 2 3 3 2 1 1 2 2 2 4 5 5 4 3 3 3 3 3 3 3 4 4 4 4 4 4
2 3 3 4 3 3 3 2 2 2 2 3 3 3 2 1 1 1 2 2 2 3 4 4 5 5 4 4 4 4 4 3 3 4 4 4 5 7
1 1 1 1 2 2 2 2 2 2 2 2 2 2 2 2 2 2 2 1 2 3 4 3 3 4 4 4 4 4 4 4 4 4 3 4 5 7
2 1 2 3 3 3 3 3 3 3 3 3 3 3 3 3 3 2 2 2 3 4 4 3 2 1 2 3 6 5 4 4 4 4 4 4 5 5
2 2 3 3 4 3 3 3 4 4 3 3 3 3 3 3 3 3 3 3 4 4 4 3 3 3 3 4 4 6 5 4 3 3 4 4 5 5
3 4 4 4 4 4 4 4 4 3 3 3 3 4 4 3 3 4 4 4 4 4 4 3 4 5 6 5 4 4 6 5 4 4 3 3 3 4
4 5 5 4 4 4 4 4 4 4 4 3 3 4 4 4 4 4 4 5 5 4 5 6 6 6 3 1 1 3 3 5 6 4 3 2 2 2
4 5 5 4 4 4 3 3 3 4 4 4 4 4 4 4 5 5 5 4 5 5 6 5 3 2 2 3 4 4 3 3 3 4 5 5 4 4
5 4 4 3 3 3 3 3 4 4 4 4 4 4 4 4 4 4 5 5 5 5 4 3 2 2 3 4 4 3 4 3 2 2 3 5 7 8
Wind_Direction
260 274 278 301 43 113 156 164 160 168 242 268 355 332 213 157 170 171 175 176 178 182 187 191 191 190 192 193 195 197 195 195 199 203 208 216 220 228
209 42 22 15 49 53 99 160 158 161 185 230 235 335 52 100 109 148 168 168 176 179 179 184 187 189 193 194 195 193 194 198 202 205 208 211 217 227
29 63 57 64 68 50 60 82 98 124 141 199 10 35 62 69 65 102 126 141 169 172 169 171 176 187 189 189 191 193 196 200 203 207 210 213 220 227
41 84 53 79 63 59 77 88 108 130 137 149 132 49 55 90 98 101 100 118 147 147 170 178 181 186 192 190 190 193 198 201 204 208 213 219 225 231
117 120 133 95 69 60 89 95 103 108 126 135 148 113 55 76 76 78 74 69 128 170 183 194 196 196 192 197 197 197 201 204 209 213 217 222 227 232
79 98 98 121 177 183 125 119 115 107 110 117 118 101 79 64 101 120 69 35 17 46 134 170 184 191 200 204 207 208 210 214 217 219 222 226 231 234
30 22 54 82 69 162 162 164 132 122 124 125 123 99 103 147 188 198 170 150 358 85 95 79 111 152 225 223 223 221 221 222 224 225 226 229 232 235
42 334 360 21 28 34 73 130 144 152 163 160 169 184 222 215 204 179 159 129 277 252 118 299 138 230 225 216 220 220 221 225 228 231 232 231 230 232
175 356 351 13 29 35 40 44 48 174 177 178 190 211 211 207 185 189 188 179 211 211 148 234 244 244 237 231 226 228 229 233 235 235 235 234 233 235
245 176 148 328 340 58 68 19 339 306 254 209 204 218 219 209 193 192 190 172 231 250 166 200 245 249 251 233 235 234 235 236 238 241 240 236 236 238
295 239 187 241 291 214 107 44 332 316 306 256 230 222 223 218 193 158 158 155 215 258 208 179 225 258 266 259 246 242 240 241 243 242 241 237 236 238
309 310 288 270 282 292 152 172 277 287 305 333 338 328 240 207 197 187 183 183 194 233 223 176 200 185 287 272 250 240 241 250 249 247 245 238 234 222
266 280 284 282 270 285 215 216 240 251 284 306 319 326 329 309 244 211 197 189 196 225 211 176 192 189 204 261 270 238 225 235 239 242 242 239 232 214
238 253 265 274 263 280 277 270 277 306 44 20 332 308 297 281 269 248 226 216 215 216 205 181 190 197 198 243 265 258 240 231 225 231 230 235 234 230
241 252 256 257 255 267 270 279 278 252 187 227 246 253 248 245 257 286 283 256 259 249 226 204 196 199 193 218 235 238 255 254 223 223 222 217 216 214
266 278 274 261 254 251 266 276 245 222 215 225 239 251 259 253 242 241 260 263 275 290 272 232 201 192 214 227 222 237 237 234 236 226 222 232 225 218
234 349 354 309 289 286 276 262 251 252 244 239 234 247 261 258 254 236 232 234 235 254 273 279 236 213 213 214 231 241 243 247 233 221 223 246 246 230
147 207 246 248 249 257 267 272 255 243 238 230 231 236 247 251 255 253 238 231 240 248 250 246 234 312 331 278 221 226 236 243 243 225 214 235 258 243
173 230 240 242 245 245 246 250 255 249 229 223 232 240 243 246 244 244 242 243 247 248 250 238 216 207 236 266 265 221 219 242 238 235 229 226 244 248
214 230 238 239 242 244 243 244 251 254 242 238 242 246 244 240 240 242 237 235 245 251 257 244 224 215 219 232 245 259 228 218 222 235 242 247 264 266
230 235 235 234 237 239 238 234 233 238 242 241 245 245 242 239 243 245 244 244 243 244 245 248 244 230 213 179 249 268 259 227 219 223 221 231 260 264
238 240 240 235 236 237 239 238 240 246 248 243 245 247 244 238 243 245 241 243 246 245 247 253 251 216 189 212 238 253 265 276 262 246 231 220 208 217
237 238 239 239 238 236 237 243 247 250 247 246 247 249 245 245 245 242 243 242 245 251 249 250 251 227 226 222 231 243 247 258 269 291 297 284 249 243
Height
1510 1510 1509 1509 1509 1508 1508 1509 1509 1508 1509 1510 1510 1510 1510 1510 1510 1511 1512 1513 1514 1515 1516 1517 1518 1519 1521 1522 1523 1524 1526 1527 1527 1528 1529 1530 1530 1531
1508 1508 1508 1507 1507 1507 1507 1507 1507 1507 1507 1508 1508 1508 1509 1509 1509 1509 1510 1511 1512 1513 1514 1515 1516 1517 1519 1520 1521 1522 1523 1524 1525 1525 1526 1527 1527 1528
1507 1507 1506 1506 1506 1505 1505 1505 1505 1505 1505 1506 1507 1507 1507 1507 1507 1508 1508 1509 1510 1511 1512 1513 1514 1515 1516 1517 1518 1519 1520 1521 1522 1523 1523 1524 1524 1525
1506 1505 1505 1505 1504 1504 1504 1503 1503 1504 1504 1504 1505 1505 1505 1506 1506 1506 1507 1508 1508 1509 1510 1511 1512 1513 1514 1514 1516 1517 1518 1518 1519 1520 1520 1521 1522 1522
1505 1504 1503 1503 1502 1502 1502 1502 1502 1502 1502 1502 1503 1503 1504 1504 1505 1505 1505 1506 1507 1507 1508 1509 1510 1511 1511 1512 1513 1514 1515 1516 1516 1517 1518 1518 1518 1519
1504 1503 1503 1502 1502 1501 1501 1501 1501 1501 1501 1501 1501 1502 1502 1502 1503 1503 1503 1504 1504 1505 1506 1506 1507 1508 1509 1509 1510 1511 1512 1513 1513 1514 1514 1515 1515 1515
1503 1502 1502 1501 1500 1500 1499 1499 1499 1499 1499 1499 1499 1500 1500 1500 1500 1501 1501 1501 1502 1503 1503 1504 1504 1505 1506 1506 1507 1508 1509 1510 1510 1511 1511 1511 1511 1512
1501 1501 1500 1500 1499 1498 1498 1498 1498 1498 1498 1498 1497 1497 1498 1498 1498 1499 1499 1499 1499 1501 1501 1501 1502 1502 1503 1504 1504 1505 1506 1506 1507 1507 1507 1507 1508 1508
1500 1499 1499 1498 1498 1497 1497 1497 1497 1496 1497 1496 1496 1495 1495 1496 1496 1496 1497 1497 1498 1498 1499 1498 1500 1500 1501 1501 1502 1502 1503 1503 1503 1503 1503 1503 1504 1504
1499 1498 1498 1497 1497 1496 1495 1495 1495 1495 1495 1494 1494 1494 1494 1494 1494 1495 1495 1495 1496 1497 1497 1496 1496 1497 1498 1498 1499 1499 1499 1499 1500 1500 1500 1500 1500 1500
1497 1497 1496 1496 1495 1495 1494 1493 1493 1493 1493 1493 1493 1492 1492 1492 1492 1493 1493 1493 1493 1494 1494 1494 1494 1494 1495 1495 1496 1496 1496 1496 1496 1496 1496 1496 1496 1496
1496 1496 1495 1494 1494 1493 1492 1492 1491 1491 1491 1490 1491 1490 1490 1490 1490 1491 1491 1491 1490 1491 1491 1491 1491 1491 1491 1491 1492 1492 1492 1492 1492 1492 1492 1492 1492 1492
1494 1494 1493 1492 1492 1491 1491 1490 1490 1489 1489 1488 1488 1488 1488 1488 1488 1488 1488 1488 1488 1488 1489 1488 1488 1488 1488 1488 1488 1489 1489 1489 1488 1488 1488 1488 1488 1488
1492 1491 1491 1490 1489 1489 1489 1488 1488 1487 1487 1486 1486 1485 1485 1485 1485 1485 1485 1485 1485 1486 1486 1485 1485 1485 1485 1484 1484 1485 1485 1485 1485 1484 1484 1484 1484 1484
1490 1489 1489 1488 1487 1486 1486 1486 1485 1485 1484 1483 1483 1483 1483 1483 1483 1483 1482 1482 1482 1482 1482 1482 1482 1482 1482 1481 1481 1481 1481 1481 1481 1480 1480 1480 1480 1480
1488 1487 1486 1486 1485 1485 1484 1484 1483 1482 1482 1481 1481 1481 1481 1480 1480 1479 1479 1478 1478 1478 1478 1478 1478 1478 1478 1478 1478 1477 1477 1476 1476 1476 1476 1476 1476 1476
1485 1484 1484 1483 1482 1482 1481 1481 1480 1480 1479 1479 1478 1478 1477 1477 1476 1476 1476 1475 1475 1474 1474 1474 1475 1475 1475 1474 1473 1473 1472 1472 1472 1472 1472 1471 1471 1471
1482 1481 1481 1480 1479 1479 1478 1477 1477 1476 1476 1476 1475 1475 1474 1473 1473 1472 1472 1472 1471 1471 1470 1470 1470 1470 1470 1470 1470 1469 1468 1468 1468 1468 1468 1467 1466 1467
1479 1478 1478 1477 1476 1475 1475 1474 1474 1473 1473 1472 1472 1471 1470 1470 1469 1468 1468 1468 1467 1467 1466 1466 1466 1466 1465 1464 1465 1465 1464 1463 1463 1463 1463 1463 1462 1463
1476 1475 1474 1474 1473 1472 1471 1471 1470 1470 1469 1468 1467 1467 1466 1465 1465 1464 1463 1463 1463 1462 1462 1462 1462 1461 1461 1461 1460 1460 1461 1460 1459 1458 1458 1458 1458 1458
1472 1472 1471 1470 1469 1469 1468 1467 1466 1465 1465 1464 1463 1462 1461 1461 1460 1459 1459 1458 1458 1458 1457 1457 1457 1458 1458 1458 1457 1456 1456 1456 1456 1455 1455 1454 1454 1454
1469 1468 1467 1467 1466 1465 1464 1463 1462 1461 1460 1459 1458 1457 1456 1456 1455 1454 1454 1453 1453 1453 1453 1453 1453 1453 1453 1453 1452 1452 1452 1452 1452 1452 1452 1451 1451 1450
1465 1465 1464 1463 1462 1461 1460 1459 1458 1456 1455 1454 1452 1452 1451 1450 1450 1449 1449 1449 1448 1448 1448 1448 1448 1449 1449 1449 1449 1448 1448 1448 1448 1448 1448 1448 1448 1448